Location: Br�z�
(47.1736°N, 0.0606°W)
Time: 12:33:07
(UTC+00:00)

Daily predictions for brighter satellites

Satellite Brightness Start Highest point End
(mag) Time Altitude Azimuth Time Altitude Azimuth Time Altitude Azimuth
Envisat 3.0 16:37:42 10° SSE 16:42:42 64° ENE 16:47:45 10° N
Cosmos 405 Rocket 4.3 16:41:03 10° NNW 16:44:48 41° W 16:48:35 10° SSW
SL-08 R/B 4.4 16:40:58 10° N 16:45:39 47° WNW 16:50:13 10° SW
Lacrosse 5 rocket 1.0 16:42:36 10° SW 16:46:16 79° SE 16:49:53 10° NE
YAOGAN 6 2.6 16:48:11 10° SSE 16:51:45 56° ENE 16:55:16 10° N
Cosmos 962 Rocket 4.5 16:47:18 10° N 16:53:36 73° E 16:59:45 10° SSE
Cosmos 2297 3.7 16:47:58 10° NNW 16:53:42 80° ENE 16:59:25 10° SSE
Cosmos 1606 2.7 16:50:02 10° S 16:53:53 73° E 16:57:47 10° NNE
OE (NEXTSAT) 4.5 16:51:14 10° W 16:54:41 73° S 16:58:08 10° E
AQUARIUS 4.5 16:52:43 10° SE 16:56:58 44° ENE 17:01:15 10° N
SL-16 R/B 2.3 16:52:27 10° SSW 16:58:03 66° ESE 17:03:40 10° NNE
CZ-4B R/B 3.1 16:56:33 10° ENE 16:58:24 15° E 17:00:17 10° SE
Landsat 5 3.7 16:55:15 10° NNE 16:59:43 68° ESE 17:04:12 10° S
BREEZE-M DEB (TANK) 2.6 16:59:00 10° SW 17:01:47 38° SSE 17:03:26 12° E
SMAP 3.1 17:01:22 10° SSE 17:05:57 61° ENE 17:10:34 10° N
Sich 1 3.4 17:03:23 10° NNW 17:07:45 71° W 17:12:03 10° S
YAOGAN 1 4.3 17:09:18 12° ENE 17:10:05 13° ENE 17:12:02 10° NNE
CZ-4C R/B 3.1 17:07:06 10° NNE 17:10:45 84° WNW 17:14:21 10° SSW
Cosmos 1151 Rocket 3.1 17:08:12 10° S 17:12:20 51° E 17:16:29 10° NNE
Cosmos 1470 Rocket 3.9 17:08:33 10° N 17:12:37 39° ENE 17:16:41 10° SE
Cosmos 1515 Rocket 4.2 17:16:30 10° SSE 17:20:26 33° E 17:24:24 10° NNE
SL-8 Rocket 4.0 17:15:29 10° N 17:21:45 81° E 17:28:04 10° S
CZ-2C R/B 4.0 17:18:15 10° ESE 17:21:57 22° ENE 17:25:35 10° NNE
Cosmos 482 Debris 3.3 17:20:18 10° WNW 17:22:02 45° SSW 17:23:45 11° SE
Cosmos 2341 Rocket 4.2 17:17:00 10° N 17:23:19 78° W 17:29:39 10° S
Cosmos 1238 Rocket 4.3 17:21:48 10° NNE 17:24:45 19° ENE 17:28:03 10° ESE
TELKOM 3 3.7 17:22:35 10° WNW 17:25:17 42° N 17:26:18 26° NE
COSMO-SKYMED 1 3.6 17:23:06 13° NE 17:26:06 26° E 17:29:45 10° SSE
Cosmos 1959 Rocket 4.5 17:20:58 10° N 17:27:21 74° E 17:33:41 10° SSE
X-37B 1.6 17:24:40 10° SW 17:27:37 36° SSE 17:29:28 19° ESE
Cosmos 2333 Rocket 4.5 17:24:44 10° WNW 17:27:52 15° NW 17:31:00 10° N
USA 281 3.8 17:23:34 10° ESE 17:29:17 33° NE 17:35:01 10° NNW
Cosmos 2219 Rocket 4.5 17:26:36 10° WNW 17:29:49 15° NW 17:33:01 10° N
USA 81 4.0 17:26:04 10° N 17:31:24 82° E 17:36:41 10° S
Cosmos 2228 Rocket 4.2 17:29:32 10° SE 17:33:07 23° E 17:34:29 20° ENE
CORIOLIS 4.2 17:27:53 10° SSE 17:33:19 89° WSW 17:38:48 10° NNW
Helios 1A Rocket 4.1 17:33:25 21° ENE 17:33:25 21° ENE 17:36:26 10° NNE
Cosmos 2285 Rocket 4.3 17:27:28 10° NNW 17:33:51 73° WSW 17:40:09 10° SSE
Meteor 1-4 Rocket 2.5 17:30:43 10° S 17:34:15 58° E 17:37:26 12° NNE
H-2A R/B 3.2 17:35:17 19° E 17:36:52 22° ENE 17:40:41 10° NNE
Cosmos 1812 4.0 17:33:57 10° SE 17:36:35 21° E 17:36:35 21° E
Cosmos 1821 Rocket 4.4 17:31:29 10° N 17:37:20 40° ENE 17:43:14 10° SE
USA 267 3.7 17:34:11 18° ENE 17:38:49 44° NNE 17:44:57 10° NW
Cosmos 1939 Rocket 3.0 17:35:26 10° SE 17:39:09 45° ENE 17:42:56 10° N
Cosmos 1328 Rocket 3.5 17:35:55 10° S 17:40:14 89° ESE 17:44:38 10° N
CZ-4 R/B 2.3 17:41:26 25° ENE 17:41:32 25° ENE 17:44:53 10° N
BREEZE-M DEB (TANK) 4.1 17:39:41 10° S 17:41:51 14° SSE 17:42:52 13° SE
Cosmos 44 Rocket 3.9 17:37:05 10° NNW 17:41:57 40° NE 17:45:08 20° ESE
Cosmos 1933 Rocket 3.6 17:38:20 10° N 17:42:45 55° ENE 17:47:07 10° SSE
Cosmos 1602 3.7 17:41:24 10° N 17:45:20 90° ENE 17:49:13 10° S
IRS-1C Rocket 4.2 17:40:29 10° SE 17:45:34 51° ENE 17:50:41 10° N
Cosmos 2181 Rocket 4.2 17:41:50 10° SSW 17:48:15 77° W 17:54:37 10° N
H-2A R/B 4.5 17:44:38 10° SSW 17:48:24 31° W 17:52:05 10° NNW
NOAA 11 4.2 17:43:54 10° SSE 17:49:20 86° WSW 17:54:49 10° NNW
Cosmos 2237 Rocket 4.1 17:44:56 10° W 17:49:30 25° NW 17:54:06 10° N
Cosmos 1680 Rocket 4.5 17:45:26 10° SSE 17:49:43 26° E 17:50:18 25° E
SL-24 R/B 4.3 17:49:34 32° ENE 17:50:17 35° E 17:53:40 10° SSE
CZ-4B R/B 3.9 17:45:27 10° S 17:50:40 55° W 17:55:52 10° NNW
Cosmos 1603 3.9 17:48:15 10° S 17:53:40 50° ESE 17:56:56 23° NE
Meteor 1-26 Rocket 4.4 17:47:47 10° SSW 17:53:49 85° W 17:59:52 10° N
CZ-2D R/B 3.4 17:52:18 10° SSE 17:56:00 49° ENE 17:59:44 10° N
Cosmos 1943 3.4 17:51:39 10° S 17:57:02 48° ESE 17:59:58 26° NE
H-2A R/B 3.3 17:54:00 10° N 17:57:58 41° WNW 18:01:59 10° SW
Cosmos 2369 Rocket 2.2 17:52:43 10° NNW 17:58:26 87° WSW 18:04:05 10° SSE
Cosmos 1538 Rocket 4.0 17:53:48 10° SSW 17:59:10 85° ESE 18:03:44 15° NNE
Cosmos 1943 Rocket 2.9 17:54:13 10° NW 17:59:37 54° WSW 18:05:03 10° S
Meteor 1-14 Rocket 4.4 17:54:49 10° NNW 18:00:49 88° W 18:06:49 10° S
Meteor 1-5 Rocket 4.3 17:55:04 10° N 18:00:56 59° ENE 18:06:34 10° SSE
Cosmos 1782 3.0 17:58:42 10° SSW 18:02:39 71° W 18:06:39 10° N
Okean O Rocket 3.0 17:58:42 10° S 18:02:50 41° W 18:07:00 10° NNW
Okean-O 2.8 18:00:10 10° SE 18:04:23 45° ENE 18:08:38 10° N
ISS -3.2 18:02:41 10° WNW 18:05:55 42° N 18:05:55 42° N
CENTAUR R/B 3.3 18:02:13 10° S 18:07:09 29° ESE 18:07:44 28° ESE
ARGOS 4.2 18:08:31 26° NE 18:08:31 26° NE 18:11:53 10° N
Cosmos 2056 Rocket 4.2 18:05:06 10° N 18:09:29 32° NE 18:09:29 32° NE
SL-08 R/B 4.4 18:05:43 10° N 18:11:52 85° W 18:17:59 10° S
ERS-2 2.2 18:10:45 26° N 18:12:43 76° WNW 18:16:22 10° SSW
SKYMED 2 3.4 18:11:44 23° NNE 18:14:23 79° ESE 18:18:43 10° S
NOSS 3-2 (C) 4.1 18:10:21 10° S 18:15:09 30° ESE 18:15:09 30° ESE
Cosmos 1869 Rocket 3.6 18:13:05 10° N 18:17:30 53° ENE 18:17:48 52° E
BREEZE-M DEB (TANK) 3.6 18:10:59 10° SW 18:19:16 47° SSE 18:19:59 42° SE
Meteor 1-27 Rocket 4.4 18:16:29 10° SSE 18:20:11 33° ESE 18:20:11 33° ESE
Lacrosse 5 rocket 2.6 18:22:39 10° WNW 18:25:42 25° NNW 18:25:53 25° NNW
Meteor 1-10 Rocket 4.1 18:20:18 10° S 18:25:52 66° E 18:28:49 28° NNE
Cosmos 1624 Rocket 4.5 18:21:38 10° NNW 18:25:56 41° NE 18:25:56 41° NE
BREEZE-M DEB (TANK) 3.8 18:25:32 10° WNW 18:26:37 27° WNW 18:26:37 27° WNW
Cosmos 371 Rocket 3.8 18:24:17 10° NNW 18:28:01 42° NNE 18:28:01 42° NNE
CZ-4B R/B 3.0 18:29:34 23° NNW 18:30:44 30° WNW 18:33:33 10° SW
NOSS 3-2 (A) 3.2 18:34:34 10° SSW 18:40:11 72° SE 18:41:27 56° ENE
Cosmos 1500 4.2 18:37:37 10° NNW 18:41:17 46° W 18:44:58 10° SSW
SL-16 R/B 4.0 18:38:00 10° WSW 18:42:40 25° NW 18:46:58 11° N
Cosmos 2239 Rocket 4.4 18:37:52 10° N 18:44:04 83° W 18:50:16 10° S
Cosmos 1535 Rocket 4.3 18:38:51 10° N 18:44:57 67° E 18:51:02 10° SSE
YAOGAN 1 3.0 18:46:28 55° NNW 18:46:28 55° NNW 18:49:54 10° NNW
USA 215 3.2 18:46:42 54° E 18:48:06 68° SE 18:54:36 10° SW
Cosmos 1656 Rocket 4.2 18:47:54 10° NNW 18:53:27 58° WSW 18:58:52 10° S
MOS 1 Rocket 3.5 18:52:44 54° N 18:54:04 88° W 18:59:27 10° SSW
USA 238 DEB 3.5 18:52:56 10° SW 18:59:31 84° SE 19:00:35 66° NE
USA 238 3.5 18:53:02 10° SSW 18:59:37 83° SE 19:00:39 66° NE
Cosmos 158 Rocket 4.1 18:55:43 10° SSW 19:00:38 66° WNW 19:00:45 66° WNW
CZ-2C R/B 3.6 18:56:40 10° S 19:01:32 53° W 19:06:15 10° NNW
COSMO-SKYMED 1 4.1 19:00:19 23° NNW 19:02:18 34° WNW 19:06:15 10° SW
X-37B 3.6 19:00:53 10° W 19:01:44 17° WSW 19:01:44 17° WSW
Cosmos 1238 Rocket 4.1 19:00:29 10° NNW 19:04:20 44° W 19:08:57 10° SSW
Cosmos 923 Rocket 4.3 18:59:26 10° SW 19:04:35 61° WNW 19:05:13 57° NNW
Cosmos 1934 Rocket 4.0 19:00:32 10° N 19:06:56 81° W 19:13:13 10° S
CSL-04 Debris 4.2 19:09:14 74° SW 19:09:33 77° WSW 19:15:04 10° NNW
Cosmos 2228 Rocket 4.4 19:06:52 10° SW 19:11:06 38° WNW 19:12:02 34° NW
USA 281 3.5 19:06:56 10° SSE 19:13:25 63° WSW 19:19:58 10° NNW
H-2A R/B 2.4 19:15:55 61° W 19:15:55 61° W 19:20:59 10° NNW
CZ-4 R/B 3.3 19:17:28 27° WNW 19:17:28 27° WNW 19:20:04 10° NNW
USA 267 3.1 19:21:32 86° N 19:21:32 86° N 19:28:03 10° NW
CSL-04 Rocket 4.4 19:25:43 45° NW 19:25:43 45° NW 19:29:36 10° NNW
Lacrosse 4 Rocket 4.2 19:23:05 10° SW 19:23:21 12° SW 19:23:21 12° SW
Cosmos 1680 Rocket 4.5 19:26:25 10° SW 19:30:41 45° W 19:30:41 45° W
CENTAUR R/B 3.5 19:51:11 10° SW 19:54:58 41° WSW 19:54:58 41° WSW
